Location: El Carrer d�Abaix
(41.5797°N, 2.1791°E)
Time: 23:49:37
(UTC+00:00)

STARLINK-1378 - Pass Details

Date: 04 October 2020
Orbit: 548 x 551 km, 53.0° (Epoch: 27 October)

Event Time Altitude Azimuth Distance (km) Brightness Sun altitude
Exits shadow 03:03:41 20° 32° (NNE) 1,306 6.0 -31.5°
Drops below altitude 10° 03:05:09 10° 42° (NE) 1,827 7.0 -31.2°
Sets 03:07:29 0° 50° (NE) 2,723 8.2 -30.8°
